Wetterdaten der Wetterstation 41540 Dormagen

Letzte Wetterlage 04.09.2015 07:22
Wetterdiagramm
Tabellarische Darstellung
Datum Temperatur Windchill Feuchte Luftdruck Windrichtung Windstärke Niederschlag
04.09.2015 07:32 10,8 °C 10,8 °C 93 % 1015,8 hPa 225 1.7 0 l/m²
04.09.2015 07:27 10,8 °C 10,8 °C 93 % 1015,8 hPa 248 1.7 0 l/m²
04.09.2015 07:22 10,8 °C 10,8 °C 93 % 1015,8 hPa 225 1.4 0 l/m²
04.09.2015 07:17 10,8 °C 10,8 °C 93 % 1015,8 hPa 225 1.7 0 l/m²
04.09.2015 07:12 10,8 °C 10,8 °C 93 % 1015,8 hPa 225 1.0 0 l/m²
04.09.2015 07:02 10,9 °C 10,9 °C 93 % 1015,7 hPa 203 1.7 0 l/m²
04.09.2015 06:57 11,0 °C 11,0 °C 92 % 1015,6 hPa 225 1.7 0 l/m²
04.09.2015 06:52 11,1 °C 11,1 °C 92 % 1015,6 hPa 90 1.7 0 l/m²
04.09.2015 06:47 11,1 °C 11,1 °C 92 % 1015,7 hPa 270 1.4 0 l/m²
04.09.2015 06:42 11,2 °C 11,2 °C 92 % 1015,4 hPa 180 1.4 0 l/m²
04.09.2015 06:37 11,3 °C 11,3 °C 92 % 1015,6 hPa 180 2.0 0 l/m²
04.09.2015 06:32 11,4 °C 11,4 °C 92 % 1015,5 hPa 225 2.0 0 l/m²
04.09.2015 06:22 11,5 °C 11,5 °C 92 % 1015,5 hPa 225 1.0 0 l/m²
04.09.2015 06:12 11,6 °C 11,6 °C 92 % 1015,5 hPa 180 1.4 0 l/m²
04.09.2015 06:07 11,6 °C 10,1 °C 92 % 1015,4 hPa 203 2.4 0 l/m²
04.09.2015 06:02 11,7 °C 11,7 °C 92 % 1015,4 hPa 225 1.4 0 l/m²
04.09.2015 05:57 11,7 °C 11,7 °C 92 % 1015,4 hPa 180 2.0 0 l/m²
04.09.2015 05:52 11,8 °C 11,8 °C 92 % 1015,4 hPa 248 0.3 0 l/m²
04.09.2015 05:42 11,9 °C 11,9 °C 92 % 1015,2 hPa 225 1.7 0 l/m²
04.09.2015 05:32 12,0 °C 12,0 °C 91 % 1015,3 hPa 225 1.4 0 l/m²
04.09.2015 05:22 12,0 °C 12,0 °C 91 % 1015,4 hPa 225 1.4 0 l/m²
04.09.2015 05:12 12,2 °C 12,2 °C 91 % 1015,4 hPa 225 1.4 0 l/m²
04.09.2015 05:07 12,2 °C 12,2 °C 91 % 1015,4 hPa 248 1.7 0 l/m²
04.09.2015 05:02 12,3 °C 12,3 °C 91 % 1015,4 hPa 225 1.0 0 l/m²
04.09.2015 04:52 12,3 °C 12,3 °C 91 % 1015,6 hPa 180 1.4 0 l/m²
Neue Wetterwarnung

Neue Niederschlagsmeldung
Neue Meldung
Regen Liveticker
    sehr starker Regen/Gewitter
    starker Regen/Gewitter
    mäßiger bis starker Regen
    mäßiger Regen
    leichter bis mäßiger Regen
    kein Regen